Regional Weather Roundup
Issued by NWS

Home | Current Version | Previous Version | Graphics & Text | Print | Product List | Glossary On
Versions: 1 2 3 4 5 6 7 8 9 10 11 12 13 14 15 16 17 18 19 20 21 22 23 24 25 26 27 28 29 30 31 32 33 34 35 36 37 38 39 40 41 42 43 44 45 46 47 48 49 50
000
ASUS44 KMEG 231610
RWRTN
TENNESSEE HOURLY STATE WEATHER ROUNDUP
NATIONAL WEATHER SERVICE MEMPHIS TN
1100 AM CDT TUE AUG 23 2016

TNZ002-004-019-021-049-052-054-088>092-231700-
WEST TENNESSEE

CITY           SKY/WX    TMP DP  RH WIND       PRES   REMARKS
MEMPHIS INTL   CLOUDY    84  74  71 SW7       30.23S HX  91
NWS MEMPHIS      N/A     82 N/A N/A MISG        N/A
JACKSON        CLOUDY    82  74  76 S7        30.24S
DYERSBURG      CLOUDY   N/A N/A N/A MISG        N/A
UNION CITY     PTSUNNY   79  68  69 SE8       30.22F
PARIS          CLOUDY    73  66  78 SE8       30.26S
$$

TNZ008-025-027-028-033-062-065-066-231700-
NORTH MIDDLE TENNESSEE

CITY           SKY/WX    TMP DP  RH WIND       PRES   REMARKS
NASHVILLE      PTSUNNY   82  62  50 CALM      30.28S
CLARKSVILLE    CLOUDY    75  64  68 S3        30.27S
SMYRNA         SUNNY     79  64  61 MISG      30.29S
COOKEVILLE     SUNNY     81  68  65 SW5       30.29S
CROSSVILLE     SUNNY     77  59  53 VRB6      30.34S
$$

TNZ061-075-076-078-094-096-097-231700-
SOUTH MIDDLE TENNESSEE

CITY           SKY/WX    TMP DP  RH WIND       PRES   REMARKS
FAYETTEVILLE   SUNNY     81  66  61 SE6       30.29S
TULLAHOMA      SUNNY     81  61  50 E3        30.30S
WINCHESTER     SUNNY     81  64  57 SE3       30.29S
MCMINNVILLE    SUNNY     81  66  61 CALM      30.30S
COLUMBIA       MOSUNNY   82  75  78 CALM      30.26S
SHELBYVILLE    SUNNY     82  66  57 CALM      30.29S
$$

TNZ017-018-042-046-047-231700-
NORTHEAST TENNESSEE

CITY           SKY/WX    TMP DP  RH WIND       PRES   REMARKS
TRI CITIES     MOSUNNY   80  64  58 CALM      30.32F
ELIZABETHTON   SUNNY     81  64  57 E6        30.32S
$$

TNZ012-013-036-069-073-074-231700-
CENTRAL EAST TENNESSEE

CITY           SKY/WX    TMP DP  RH WIND       PRES   REMARKS
KNOXVILLE      MOSUNNY   80  62  54 CALM      30.29S
OAK RIDGE      SUNNY     80  62  54 VRB3      30.31F
GATLINBURG     SUNNY     79  64  61 CALM      30.29S
MORRISTOWN     SUNNY     79  64  61 CALM      30.30F
$$

TNZ083-085-099-231700-
SOUTHEAST TENNESSEE

CITY           SKY/WX    TMP DP  RH WIND       PRES   REMARKS
CHATTANOOGA    PTSUNNY   81  64  56 CALM      30.29F
$$

SKY/WX REPORTED AS FAIR MEANS FEW OR NO CLOUDS BELOW
12 THOUSAND FEET.





USA.gov is the U.S. government's official web portal to all federal, state and local government web resources and services.